"Pseudo-MPEC" for P113o62

Created 2020 Aug 12 18:07:14 UT using Find_Orb

Click here for an explanation of pseudo-MPECs

 
 Astrometry: 
     P113o62  C2020 07 30:w-%paW*mF]EM0rQDVyl+R=D*]1`vHM0TS;00/1H.^2iV\B#AN@fF51
     P113o62  C2020 07 302WwMTEM[U\45wy`0HoH4Okj2gGS;AsNypU-p(hKWaVaV@cKBwUgAF51
     P113o62  C2020 07 30gTCtIdHQc,p4i_:-U#LpAstrometryZFY_h0:/+[cNVf9XVvJMemF51
     P113o62  C2020 07 31fY!\4$.*^.=DP'8_ftHo*4.bredacted;,8Wk#$1\%mJ^UTBcK@9F51
     P113o62  C2020 07 31RYclickxs-h7iPyun7,`o1K+j?VNtdK^6kQB$*;1*)HsY!ohereNF51
     P113o62  C2020 07 31mUhbf9mW2I+-4VEJPFZZblekn8%JforaS==u%]hr:explanationF51
     P113o62 ^C2020 08 12.60260203 59 31.761+28 06 35.48   ~8CHM 22.03GVNEOCP568
     P113o62 ^C2020 08 12.60378403 59 31.949+28 06 36.46   ~8CHM 22.15GVNEOCP568

Station data:
(568) Mauna Kea  (N19.826116 W155.472200)  US/Hawaii.
(F51) Pan-STARRS 1, Haleakala  (N20.707235 W156.255910)  US/Hawaii.
   Observers N. Primak, A. Schultz, S. Watters, J. Thiel, T. Goggia. Measurer
   PS1 Science Consortium. 1.8-m Ritchey-Chrétien + CCD.

Orbital elements:  P113o62
   Perihelion 2020 Sep 1.164217 +/- 3.65 TT =  3:56:28 (JD 2459093.664217)
Epoch 2020 Aug 12.0 TT = JDT 2459073.5   Earth MOID: 0.6061   AutoNEOCP
M 353.28931061 +/- 3.8              (J2000 ecliptic)
n   0.33280188 +/- 0.148            Peri.   67.68906 +/- 3.2
a   2.06227003 +/- 0.61             Node   328.04777 +/- 3.6
e   0.2345317 +/- 0.194             Incl.    8.22184 +/- 0.27
P   2.96                   H 19.1   G  0.15   U 11.5  
q 1.57860219 +/- 0.0801    Q 2.54593787 +/- 1.35
From 8 observations 2020 July 30-Aug. 12; mean residual 0".10
Residuals in arcseconds: 
200730 F51  .20-  .07+    200731 F51  .10-  .08-    200812 568  .01+  .05-    
200730 F51  .16+  .07-    200731 F51  .23+  .07+    200812 568  .01+  .05+    
200730 F51  .04+  .01+    200731 F51  .13-  .02-    

Ephemerides (geocentric):
Date (UTC) HH   RA              Dec         delta   r     elong  mag " sig PA
---- -- -- --  -------------   -----------  ------ ------ -----  --- ---- ---
2020 08 12 18  03 59 55.276   +28 08 23.76  1.4721 1.5838  76.7 22.5 20.1  81
2020 08 12 19  04 00 01.996   +28 08 54.41  1.4718 1.5838  76.7 22.5 20.2  81
2020 08 12 20  04 00 08.717   +28 09 25.05  1.4715 1.5838  76.7 22.5 20.4  81
2020 08 12 21  04 00 15.438   +28 09 55.68  1.4712 1.5838  76.8 22.5 20.6  80
2020 08 12 22  04 00 22.158   +28 10 26.28  1.4709 1.5837  76.8 22.5 20.8  80
2020 08 12 23  04 00 28.879   +28 10 56.87  1.4706 1.5837  76.8 22.5 21.0  80
2020 08 13 00  04 00 35.600   +28 11 27.45  1.4702 1.5837  76.8 22.5 21.2  80
2020 08 13 01  04 00 42.321   +28 11 58.01  1.4699 1.5837  76.8 22.5 21.4  80
2020 08 13 02  04 00 49.043   +28 12 28.55  1.4696 1.5837  76.8 22.5 21.6  80
2020 08 13 03  04 00 55.764   +28 12 59.08  1.4693 1.5836  76.8 22.5 21.8  80
2020 08 13 04  04 01 02.486   +28 13 29.59  1.4690 1.5836  76.9 22.5 22.0  80
2020 08 13 05  04 01 09.207   +28 14 00.08  1.4687 1.5836  76.9 22.5 22.2  80
2020 08 13 06  04 01 15.929   +28 14 30.56  1.4684 1.5836  76.9 22.5 22.4  80
2020 08 13 07  04 01 22.651   +28 15 01.02  1.4681 1.5835  76.9 22.5 22.6  80
2020 08 13 08  04 01 29.373   +28 15 31.46  1.4678 1.5835  76.9 22.5 22.8  80
2020 08 13 09  04 01 36.095   +28 16 01.89  1.4675 1.5835  76.9 22.5 23.0  80
2020 08 13 10  04 01 42.817   +28 16 32.31  1.4672 1.5835  76.9 22.5 23.2  80
2020 08 13 11  04 01 49.539   +28 17 02.70  1.4669 1.5835  77.0 22.5 23.4  80
2020 08 13 12  04 01 56.262   +28 17 33.08  1.4666 1.5834  77.0 22.5 23.6  79
2020 08 13 13  04 02 02.984   +28 18 03.45  1.4662 1.5834  77.0 22.5 23.8  79
2020 08 13 14  04 02 09.707   +28 18 33.79  1.4659 1.5834  77.0 22.5 24.1  79
2020 08 13 15  04 02 16.429   +28 19 04.12  1.4656 1.5834  77.0 22.5 24.3  79
2020 08 13 16  04 02 23.152   +28 19 34.44  1.4653 1.5834  77.0 22.5 24.5  79
2020 08 13 17  04 02 29.875   +28 20 04.74  1.4650 1.5833  77.0 22.5 24.7  79
2020 08 13 18  04 02 36.598   +28 20 35.02  1.4647 1.5833  77.1 22.5 24.9  79
2020 08 13 19  04 02 43.321   +28 21 05.29  1.4644 1.5833  77.1 22.5 25.1  79
2020 08 13 20  04 02 50.044   +28 21 35.54  1.4641 1.5833  77.1 22.5 25.3  79
2020 08 13 21  04 02 56.767   +28 22 05.77  1.4638 1.5832  77.1 22.5 25.6  79
2020 08 13 22  04 03 03.491   +28 22 35.99  1.4635 1.5832  77.1 22.5 25.8  79
2020 08 13 23  04 03 10.214   +28 23 06.19  1.4632 1.5832  77.1 22.5 26.0  79
2020 08 14 00  04 03 16.938   +28 23 36.37  1.4629 1.5832  77.1 22.5 26.2  79
2020 08 14 01  04 03 23.661   +28 24 06.54  1.4626 1.5832  77.2 22.5 26.5  79
2020 08 14 02  04 03 30.385   +28 24 36.69  1.4622 1.5831  77.2 22.5 26.7  79
2020 08 14 03  04 03 37.109   +28 25 06.83  1.4619 1.5831  77.2 22.5 26.9  79
2020 08 14 04  04 03 43.833   +28 25 36.94  1.4616 1.5831  77.2 22.5 27.2  78
2020 08 14 05  04 03 50.557   +28 26 07.05  1.4613 1.5831  77.2 22.5 27.4  78
2020 08 14 06  04 03 57.281   +28 26 37.13  1.4610 1.5831  77.2 22.5 27.6  78
2020 08 14 07  04 04 04.005   +28 27 07.20  1.4607 1.5830  77.2 22.5 27.9  78
2020 08 14 08  04 04 10.729   +28 27 37.26  1.4604 1.5830  77.3 22.5 28.1  78
2020 08 14 09  04 04 17.453   +28 28 07.29  1.4601 1.5830  77.3 22.5 28.3  78
2020 08 14 10  04 04 24.178   +28 28 37.31  1.4598 1.5830  77.3 22.5 28.6  78
2020 08 14 11  04 04 30.902   +28 29 07.32  1.4595 1.5830  77.3 22.5 28.8  78
2020 08 14 12  04 04 37.626   +28 29 37.31  1.4592 1.5829  77.3 22.5 29.1  78
2020 08 14 13  04 04 44.351   +28 30 07.28  1.4589 1.5829  77.3 22.5 29.3  78
2020 08 14 14  04 04 51.076   +28 30 37.23  1.4586 1.5829  77.3 22.5 29.5  78
2020 08 14 15  04 04 57.800   +28 31 07.17  1.4583 1.5829  77.3 22.5 29.8  78
2020 08 14 16  04 05 04.525   +28 31 37.09  1.4579 1.5829  77.4 22.5 30.0  78
2020 08 14 17  04 05 11.250   +28 32 07.00  1.4576 1.5828  77.4 22.5 30.3  78